Printer-friendly version

IAU Minor Planet Center

Minor Planet Center

MPEC 2000-Q31: 2000 QV7

The following Minor Planet Electronic Circular may be linked-to from your own Web pages, but must not otherwise be redistributed electronically.


Read MPEC 2000-Q30 Read MPEC 2000-Q32


M.P.E.C. 2000-Q31                                Issued 2000 Aug. 27, 17:42 UT

     The Minor Planet Electronic Circulars contain information on unusual
         minor planets and routine data on comets.  They are published
   on behalf of Commission 20 of the International Astronomical Union by the
          Minor Planet Center, Smithsonian Astrophysical Observatory,
                          Cambridge, MA 02138, U.S.A.

             Prepared using the Tamkin Foundation Computer Network

             BMARSDEN@CFA.HARVARD.EDU or GWILLIAMS@CFA.HARVARD.EDU
          URL http://cfa-www.harvard.edu/iau/mpc.html  ISSN 1523-6714

                                   2000 QV7

Observations:
     K00Q07V* C2000 08 25.26501 22 24 45.93 -05 21 59.5          15.9        704
     K00Q07V  C2000 08 25.27790 22 24 44.12 -05 23 38.1          16.2        704
     K00Q07V  C2000 08 25.29081 22 24 42.29 -05 25 17.2          17.4        704
     K00Q07V  C2000 08 25.31670 22 24 38.69 -05 28 33.1          16.6        704
     K00Q07V  C2000 08 25.81997 22 23 49.98 -06 29 45.5          16.1 R      046
     K00Q07V  C2000 08 25.82064 22 23 49.96 -06 29 48.8                      046
     K00Q07V  C2000 08 25.82156 22 23 49.82 -06 29 56.7                      046
     K00Q07V  C2000 08 25.82229 22 23 49.75 -06 30 01.7                      046
     K00Q07V  C2000 08 25.82299 22 23 49.71 -06 30 06.3                      046
     K00Q07V  C2000 08 25.83939 22 23 47.99 -06 32 00.8                      611
     K00Q07V  C2000 08 25.84031 22 23 47.85 -06 32 06.9                      611
     K00Q07V  C2000 08 25.84109 22 23 47.68 -06 32 12.0                      611
     K00Q07V  C2000 08 25.84194 22 23 47.68 -06 32 19.2                      611
     K00Q07V  C2000 08 25.84265 22 23 47.56 -06 32 23.6                      611
     K00Q07V  C2000 08 25.84269 22 23 47.77 -06 32 23.5          16.2 R      163
     K00Q07V  C2000 08 25.84296 22 23 47.72 -06 32 25.8                      163
     K00Q07V  C2000 08 25.84353 22 23 47.65 -06 32 29.7                      163
     K00Q07V  C2000 08 25.88380 22 23 43.03 -06 37 05.8          16.1 R      587
     K00Q07V  C2000 08 25.88565 22 23 42.81 -06 37 18.5          16.1 R      587
     K00Q07V  C2000 08 25.92405 22 23 37.52 -06 41 44.5          16.4 R      118
     K00Q07V  C2000 08 25.92569 22 23 37.33 -06 41 55.8                      118
     K00Q07V  C2000 08 25.92773 22 23 37.08 -06 42 09.5                      118
     K00Q07V 1C2000 08 25.98711 22 23 30.64 -06 48 55.1          16.5        012
     K00Q07V 1C2000 08 26.00205 22 23 28.87 -06 50 38.9                      012
     K00Q07V  C2000 08 26.06488 22 23 25.28 -06 56 03.7          17.9 V      860
     K00Q07V  C2000 08 26.06611 22 23 25.16 -06 56 11.1          17.9 V      860
     K00Q07V  C2000 08 26.06856 22 23 24.72 -06 56 26.6          17.6 V      860
     K00Q07V tC2000 08 26.13495 22 23 18.35 -07 03 35.6                      808
     K00Q07V tC2000 08 26.15521 22 23 15.88 -07 05 50.3                      808
     K00Q07V tC2000 08 26.17668 22 23 13.16 -07 08 10.8                      808
     K00Q07V tC2000 08 26.21464 22 23 08.52 -07 12 20.8                      808
     K00Q07V tC2000 08 26.23680 22 23 05.79 -07 14 44.9                      808
     K00Q07V  C2000 08 26.26687 22 23 05.07 -07 19 28.1          16.6        704
     K00Q07V  C2000 08 26.28034 22 23 03.44 -07 20 55.1          16.7        704
     K00Q07V SC2000 08 26.28839 22 23 03.49 -07 21 46.5                      670
     K00Q07V  C2000 08 26.29382 22 23 01.77 -07 22 21.8          17.1        704
     K00Q07V  C2000 08 26.30723 22 23 00.15 -07 23 47.7          18.1        704
     K00Q07V SC2000 08 26.31310 22 23 00.40 -07 24 24.6                      670
     K00Q07V 1C2000 08 26.31904 22 22 59.90 -07 25 17.7                      658
     K00Q07V  C2000 08 26.32070 22 22 58.53 -07 25 13.9          16.7        704
     K00Q07V 1C2000 08 26.32642 22 22 59.07 -07 26 04.4                      658
     K00Q07V 1C2000 08 26.32792 22 22 58.91 -07 26 14.0                      658
     K00Q07V 1C2000 08 26.39521 22 22 51.18 -07 33 20.9                      658
     K00Q07V 1C2000 08 26.39927 22 22 50.78 -07 33 47.4                      658
     K00Q07V 1C2000 08 26.40355 22 22 50.29 -07 34 13.9                      658
     K00Q07V  C2000 08 26.83735 22 22 16.41 -08 18 16.2          17.4 V      151
     K00Q07V  C2000 08 26.83802 22 22 16.37 -08 18 18.1          17.1 V      151
     K00Q07V  C2000 08 26.83932 22 22 16.19 -08 18 27.3          17.0 V      151
     K00Q07V  C2000 08 26.84141 22 22 15.99 -08 18 40.6          17.4 V      151
     K00Q07V  C2000 08 26.84273 22 22 15.85 -08 18 48.4          17.0 V      151
     K00Q07V  C2000 08 26.86285 22 22 13.33 -08 20 48.8                      557
     K00Q07V  C2000 08 26.86346 22 22 13.45 -08 20 48.5          16.7        106
     K00Q07V  C2000 08 26.86398 22 22 13.24 -08 20 55.2                      557
     K00Q07V  C2000 08 26.86509 22 22 13.10 -08 21 01.4          17.1 V      557
     K00Q07V  C2000 08 26.86620 22 22 13.01 -08 21 08.1                      557
     K00Q07V  C2000 08 26.88482 22 22 11.20 -08 22 54.7          16.5        106
     K00Q07V  C2000 08 26.89303 22 22 10.26 -08 23 46.2          16.5 R      113
     K00Q07V  C2000 08 26.90645 22 22 08.95 -08 25 00.6          16.6        106
     K00Q07V  C2000 08 26.90659 22 22 08.81 -08 25 04.9          16.8 R      113
     K00Q07V  C2000 08 26.90867 22 22 08.67 -08 25 17.0          16.6 R      113
     K00Q07V  C2000 08 26.91194 22 22 08.27 -08 25 35.3          16.3 R      046
     K00Q07V  C2000 08 26.91274 22 22 08.20 -08 25 40.1                      046
     K00Q07V  C2000 08 26.91341 22 22 08.13 -08 25 44.3                      046
     K00Q07V  C2000 08 26.91403 22 22 08.05 -08 25 47.5                      046
     K00Q07V  C2000 08 26.95480 22 22 03.62 -08 29 43.6          16.3 R      118
     K00Q07V  C2000 08 26.95721 22 22 03.37 -08 29 57.5                      118
     K00Q07V  C2000 08 26.95874 22 22 03.68 -08 30 03.4                      104
     K00Q07V  C2000 08 26.96019 22 22 03.60 -08 30 12.0                      104
     K00Q07V  C2000 08 26.96070 22 22 03.01 -08 30 17.7                      118
     K00Q07V  C2000 08 26.96169 22 22 03.34 -08 30 19.5                      104
     K00Q07V  C2000 08 26.96366 22 22 02.99 -08 30 31.1          16.6 V      104
     K00Q07V  C2000 08 26.97472 22 22 02.66 -08 31 30.8                      952
     K00Q07V  C2000 08 26.97923 22 22 02.16 -08 31 57.2                      952
     K00Q07V  C2000 08 26.98886 22 22 01.12 -08 32 52.7                      952
     K00Q07V  C2000 08 27.01101 22 22 02.12 -08 33 45.0          17.1 V      859
     K00Q07V  C2000 08 27.01550 22 22 01.65 -08 34 09.6          16.8 V      859
     K00Q07V  C2000 08 27.01993 22 22 01.20 -08 34 35.1          16.6 V      859
     K00Q07V  C2000 08 27.17579 22 21 47.69 -08 50 29.8          17.6 V      734
     K00Q07V  C2000 08 27.17740 22 21 47.60 -08 50 38.2          17.1 V      734
     K00Q07V  C2000 08 27.31443 22 21 34.86 -09 03 10.6                      670
     K00Q07V  C2000 08 27.36917 22 21 29.13 -09 08 10.0                      670
     K00Q07V 1C2000 08 27.38564 22 21 27.93 -09 09 49.6                      658
     K00Q07V  C2000 08 27.40290 22 21 25.63 -09 11 10.1                      670
     K00Q07V 1C2000 08 27.40654 22 21 25.91 -09 11 41.6                      658

Observer details:
012 Uccle.  Observers H. Debehogne, E. W. Elst.  0.85-m f/2.5 Schmidt + CCD.
046 Klet.  Observers J. Ticha, M. Tichy, Z. Moravec, P. Jelinek.  0.57-m f/5.2
    reflector + CCD.
104 San Marcello Pistoiese.  Observers L. Tesi, A. Boattini, M. Tombelli.
    Measurers G. Forti, L. Tesi, A. Boattini, M. Tombelli.  0.40-m f/5
    reflector + CCD.
106 Crni Vrh.  Observer H. Mikuz.  0.36-m f/6.7 Schmidt-Cassegrain + CCD.
113 Volkssternwarte Drebach, Schoenbrunn.  Observers G. Lehmann, J. Kandler,
    J. Lehmann.  0.50-m f/4.0 reflector + CCD.
118 Modra.  Observers L. Kornos, P. Koleny.  0.6-m f/5.5 reflector + CCD.
151 Eschenberg Observatory, Winterthur.  Observer M. Griesser.  0.40-m f/5.8
    Hypergraph.
163 Roeser Observatory, Luxembourg.  Observer M. Dawson.  0.457-m f/4.5
    reflector + CCD.
557 Ondrejov.  Observers P. Pravec, P. Kusnirak.  0.65-m f/3.6 reflector + CCD.
587 Sormano.  Observers M. Cavagna, M. Banfi.  0.5-m reflector + CCD.
611 Starkenburg.  Observer M. Busch.  0.45-m f/4.4 reflector + CCD.
658 National Research Council of Canada.  Observer D. D. Balam.  1.82-m
    Plaskett reflector + CCD.
670 Camarillo.  Observer J. E. Rogers.  0.30-m f/6.7 Helin Telescope + CCD.
704 Lincoln Laboratory ETS, New Mexico.  Observers M. Blythe, F. Shelly,
    M. Bezpalko, M. Elowitz, R. Huber, L. Manguso.  Measurers J. Stuart,
    R. Sayer, J. B. Evans, H. Viggh.  1.0-m f/2.15 reflector + CCD.
734 Farpoint Observatory.  Observer G. Hug.  0.30-m Schmidt-Cassegrain + CCD.
808 El Leoncito.  Observers C. E. Lopez, H. S. Lepez.  0.5-m f/7.5 double
    astrograph + CCD.
859 Wykrota Observatory-CEAMIG.  Observers C. Jacques, L. Duczmal, J. Duczmal,
    C. Magno.  0.3-m f/3.3 Schmidt-Cassegrain + CCD.
860 Valinhos.  Observer P. R. Holvorcem.  0.36-m f/3.6 Schmidt-Cassegrain
    + CCD.
952 Marxuquera.  Observer J. J. Gomez.  0.25-m f/3.3 Schmidt-Cassegrain + CCD.

Orbital elements:
2000 QV7                                                             PHA 0.023
Epoch 2000 Aug. 24.0 TT = JDT 2451780.5                 Williams
M  37.99132              (2000.0)            P               Q
n   0.59205538     Peri.   79.18175     -0.58001129     +0.81185621
a   1.4046275      Node   154.99789     -0.79549684     -0.54680342
e   0.5217300      Incl.    9.10826     -0.17541861     -0.20468394
P   1.66           H   21.2           G   0.15
From 84 observations 2000 Aug. 25-27.

Ephemeris:
2000 QV7                 a,e,i = 1.40, 0.52, 9                   q = 0.6718
Date    TT    R. A. (2000) Decl.     Delta      r     Elong.  Phase     V
2000 08 24    22 27.31   -02 19.4    0.086    1.096   170.5     8.7    16.7
2000 08 29    22 19.60   -11 17.8    0.130    1.140   176.6     3.0    17.4
2000 09 03    22 15.87   -15 37.0    0.177    1.183   168.5     9.8    18.4
2000 09 08    22 14.13   -17 59.4    0.227    1.226   162.1    14.6    19.2
2000 09 13    22 13.66   -19 21.6    0.279    1.267   156.6    18.4    19.9
2000 09 18    22 14.16   -20 08.1    0.334    1.308   151.6    21.4    20.4
2000 09 23    22 15.44   -20 31.2    0.391    1.348   147.0    23.9    20.9
2000 09 28    22 17.43   -20 38.0    0.450    1.387   142.6    26.0    21.4
2000 10 03    22 20.06   -20 32.6    0.512    1.424   138.4    27.8    21.8
2000 10 08    22 23.28   -20 17.9    0.576    1.461   134.4    29.3    22.1
2000 10 13    22 27.01   -19 56.0    0.643    1.497   130.5    30.4    22.4

Gareth V. Williams           (C) Copyright 2000 MPC           M.P.E.C. 2000-Q31

Read MPEC 2000-Q30 Read MPEC 2000-Q32


Our Web policy. Index to the CBAT/MPC/ICQ pages.


Valid HTML 4.01!